This demonstration page uses our WeatherBlox Daily Observations layout. Learn more.

Left ArrowRight Arrow

39.51506, -84.39828

Hourly Observations for March 21, 2018

Temp ( °F °C ) Dew Point ( °F °C ) Humidity (%) Winds ( mph kmh ) Pressure ( in mb ) Visibility ( mi km ) Precip ( " mm )
12:15 am 00:15 Cloudy with Light Snow 30 -0.9 28 -2.2 91 91 N 10 17 29.77 1008 3.5 5.63269 N/A
12:35 am 00:35 Cloudy with Light Snow 30 -1.1 28 -2.2 92 92 N 9 15 29.77 1008 1.25 2.011675 N/A
12:55 am 00:55 Cloudy with Light Snow 30 -1.1 28 -2.1 93 93 N 10 17 29.74 1007 1.75 2.816345 N/A
1:15 am 01:15 Cloudy with Light Snow 30 -1.1 28 -2.2 92 92 N 8 13 29.74 1007 1.75 2.816345 N/A
1:35 am 01:35 Cloudy with Light Snow 30 -1.2 28 -2.1 94 94 N 9 15 29.74 1007 1.5 2.41401 N/A
1:55 am 01:55 Cloudy with Light Snow 30 -1 28 -2.2 92 92 N 10 17 29.74 1007 3 4.82802 0.01 0.254
2:15 am 02:15 Cloudy with Light Snow 30 -1 28 -2.2 92 92 N 12 19 29.74 1007 2.5 4.02335 N/A
2:35 am 02:35 Cloudy with Light Snow 30 -0.9 28 -2.2 91 91 N 14 22 29.74 1007 3 4.82802 N/A
2:55 am 02:55 Cloudy with Light Snow 30 -0.9 28 -2.3 90 90 N 13 20 29.74 1007 2.5 4.02335 N/A
3:15 am 03:15 Cloudy with Light Snow 30 -0.9 28 -2.5 89 89 N 14 22 29.74 1007 4 6.43736 N/A
3:35 am 03:35 Cloudy with Light Snow 30 -1 28 -2.5 90 90 N 13 20 29.74 1007 2.5 4.02335 N/A
3:55 am 03:55 Cloudy with Light Snow 30 -1.1 28 -2.4 91 91 N 14 22 29.74 1007 2 3.21868 N/A
4:15 am 04:15 Cloudy with Light Snow 30 -1.2 28 -2.5 91 91 N 10 17 29.74 1007 1.75 2.816345 N/A
4:35 am 04:35 Cloudy with Light Snow 29 -1.4 27 -2.6 92 92 N 12 19 29.74 1007 1.75 2.816345 N/A
4:55 am 04:55 Cloudy with Light Snow 29 -1.6 27 -2.9 91 91 N 14 22 29.74 1007 2.5 4.02335 N/A
5:15 am 05:15 Cloudy with Light Snow 29 -1.8 26 -3.1 91 91 N 12 19 29.74 1007 1.75 2.816345 N/A
5:35 am 05:35 Cloudy with Light Snow 28 -2 26 -3.3 91 91 N 13 20 29.74 1007 2.5 4.02335 N/A
5:55 am 05:55 Cloudy with Light Snow 28 -2.1 26 -3.5 90 90 N 12 19 29.77 1008 3.5 5.63269 N/A
6:15 am 06:15 Cloudy with Light Snow 28 -2.2 25 -3.7 90 90 N 12 19 29.77 1008 2.5 4.02335 N/A
6:35 am 06:35 Cloudy with Light Snow 28 -2.2 25 -3.8 89 89 N 13 20 29.77 1008 3.5 5.63269 N/A
6:55 am 06:55 Cloudy with Light Snow 28 -2.2 25 -4 88 88 NNW 15 24 29.77 1008 5 8.0467 N/A
7:15 am 07:15 Cloudy with Light Snow 28 -2.1 25 -4.1 86 86 NNW 16 26 29.8 1009 10 16.0934 N/A
7:35 am 07:35 Cloudy with Light Wintry Mix 28 -2.1 25 -4.1 86 86 N 14 22 29.8 1009 10 16.0934 N/A
7:55 am 07:55 Cloudy with Light Snow 29 -1.9 25 -4 86 86 N 15 24 29.8 1009 7 11.26538 N/A
8:15 am 08:15 Cloudy with Light Snow 28 -2 25 -4.1 86 86 NNW 15 24 29.8 1009 3.5 5.63269 N/A
8:35 am 08:35 Cloudy with Light Snow 28 -2 25 -4.1 86 86 N 13 20 29.83 1010 7 11.26538 N/A
8:55 am 08:55 Cloudy with Light Snow 29 -1.9 24 -4.2 84 84 N 17 28 29.83 1010 10 16.0934 N/A
9:15 am 09:15 Cloudy with Light Snow 29 -1.8 25 -4.1 84 84 N 13 20 29.83 1010 10 16.0934 N/A
9:35 am 09:35 Cloudy 29 -1.7 25 -4 85 85 N 15 24 29.85 1011 7 11.26538 N/A
9:55 am 09:55 Cloudy 29 -1.6 25 -3.9 85 85 N 14 22 29.85 1011 7 11.26538 N/A
10:15 am 10:15 Cloudy with Light Snow 29 -1.5 25 -3.8 85 85 N 15 24 29.85 1011 7 11.26538 N/A
10:35 am 10:35 Cloudy with Light Snow 29 -1.4 25 -3.8 84 84 N 16 26 29.88 1012 5 8.0467 N/A
10:55 am 10:55 Cloudy with Light Snow 30 -1.3 25 -3.8 83 83 N 14 22 29.88 1012 7 11.26538 N/A
11:15 am 11:15 Cloudy 30 -1.2 25 -3.9 82 82 N 15 24 29.88 1012 10 16.0934 N/A
11:35 am 11:35 Cloudy 30 -1.2 25 -3.9 82 82 NNW 12 19 29.88 1012 10 16.0934 N/A
11:55 am 11:55 Cloudy 30 -1 25 -3.9 81 81 N 15 24 29.91 1013 10 16.0934 N/A
12:15 pm 12:15 Cloudy 30 -0.9 25 -3.9 80 80 N 15 24 29.91 1013 10 16.0934 N/A
12:35 pm 12:35 Cloudy 30 -0.9 25 -3.9 80 80 N 17 28 29.91 1013 10 16.0934 N/A
12:55 pm 12:55 Cloudy 31 -0.8 25 -3.7 81 81 N 16 26 29.94 1014 10 16.0934 N/A
1:15 pm 13:15 Cloudy 31 -0.7 25 -3.7 80 80 N 13 20 29.94 1014 10 16.0934 N/A
1:35 pm 13:35 Cloudy 31 -0.5 25 -3.7 79 79 N 12 19 29.94 1014 10 16.0934 N/A
1:55 pm 13:55 Cloudy with Haze 31 -0.5 25 -3.7 79 79 N 12 19 29.97 1015 7 11.26538 N/A
2:15 pm 14:15 Cloudy 31 -0.4 25 -3.8 78 78 NNW 12 19 29.97 1015 10 16.0934 N/A
2:35 pm 14:35 Cloudy 31 -0.3 25 -3.7 78 78 N 12 19 29.97 1015 10 16.0934 N/A
2:55 pm 14:55 Cloudy 32 undefined 25 -3.9 75 75 NNW 14 22 29.97 1015 10 16.0934 N/A
3:15 pm 15:15 Cloudy 33 0.4 25 -4 73 73 N 12 19 30 1016 10 16.0934 N/A
3:35 pm 15:35 Cloudy with Light Rain 33 0.5 25 -4 72 72 N 12 19 30 1016 10 16.0934 N/A
3:55 pm 15:55 Cloudy 33 0.8 25 -4.1 70 70 N 14 22 30 1016 10 16.0934 N/A
4:15 pm 16:15 Cloudy 34 1.1 25 -4 69 69 NNW 13 20 30.03 1017 10 16.0934 N/A
4:35 pm 16:35 Cloudy with Light Rain 34 1.2 24 -4.3 67 67 NNW 10 17 30.03 1017 10 16.0934 N/A
4:55 pm 16:55 Cloudy 35 1.5 23 -5.1 62 62 NNW 17 28 30.03 1017 10 16.0934 N/A
5:15 pm 17:15 Cloudy 35 1.7 23 -5 61 61 NNW 14 22 30.03 1017 10 16.0934 N/A
5:35 pm 17:35 Cloudy 35 1.8 23 -4.8 62 62 NW 9 15 30.06 1018 10 16.0934 N/A
5:55 pm 17:55 Cloudy 36 2.1 23 -4.9 60 60 NNW 12 19 30.06 1018 10 16.0934 N/A
6:15 pm 18:15 Cloudy 36 2.2 22 -5.3 58 58 NW 10 17 30.06 1018 10 16.0934 N/A
6:35 pm 18:35 Cloudy 36 2.2 22 -5.8 56 56 NNW 7 11 30.09 1019 10 16.0934 N/A
6:55 pm 18:55 Cloudy 36 2.4 20 -6.4 53 53 NNW 7 11 30.09 1019 10 16.0934 N/A
7:15 pm 19:15 Cloudy 36 2.4 19 -7.2 50 50 NNW 7 11 30.09 1019 10 16.0934 N/A
7:35 pm 19:35 Cloudy 36 2.2 20 -6.7 52 52 NNW 6 9 30.12 1020 10 16.0934 N/A
7:55 pm 19:55 Cloudy 36 2.1 20 -6.7 53 53 NNW 3 6 30.12 1020 10 16.0934 N/A
8:15 pm 20:15 Cloudy 35 1.7 21 -6.1 57 57 N N/A 30.15 1021 10 16.0934 N/A
8:35 pm 20:35 Cloudy 35 1.7 21 -6.2 56 56 N N/A 30.15 1021 10 16.0934 N/A
8:55 pm 20:55 Cloudy 35 1.6 22 -5.8 58 58 N N/A 30.15 1021 10 16.0934 N/A
9:15 pm 21:15 Cloudy 34 1.2 23 -5 64 64 N N/A 30.15 1021 10 16.0934 N/A
9:35 pm 21:35 Mostly Cloudy 34 1.2 23 -5 64 64 N N/A 30.15 1021 10 16.0934 N/A
9:55 pm 21:55 Mostly Cloudy 34 0.9 23 -5.1 65 65 N N/A 30.18 1022 10 16.0934 N/A
10:15 pm 22:15 Mostly Cloudy 34 1.1 23 -5.1 64 64 N N/A 30.18 1022 10 16.0934 N/A
10:35 pm 22:35 Partly Cloudy 32 undefined 22 -5.3 68 68 WNW 3 6 30.18 1022 10 16.0934 N/A
10:55 pm 22:55 Partly Cloudy 32 0.1 22 -5.8 65 65 N N/A 30.18 1022 10 16.0934 N/A
11:15 pm 23:15 Cloudy 33 0.4 21 -5.9 63 63 N N/A 30.18 1022 10 16.0934 N/A
11:35 pm 23:35 Partly Cloudy 32 0.1 20 -6.4 62 62 N N/A 30.18 1022 10 16.0934 N/A
11:55 pm 23:55 Clear 32 -0.1 21 -6.2 64 64 NW 3 6 30.18 1022 10 16.0934 N/A

Powered by AerisWeather